Regional Weather Roundup
Issued by NWS

Home | Current Version | Previous Version | Graphics & Text | Print | Product List | Glossary On
Versions: 1 2 3 4 5 6 7 8 9 10 11 12 13 14 15 16 17 18 19 20 21 22 23 24 25 26 27 28 29 30 31 32 33 34 35 36 37 38 39 40 41 42 43 44 45 46 47 48 49 50
676
ASUS45 KBOU 241607
RWRCO

WEATHER ROUNDUP FOR COLORADO
NATIONAL WEATHER SERVICE DENVER/BOULDER CO
1000 AM MDT WED MAY 24 2017

NOTE: "FAIR" INDICATES FEW OR NO CLOUDS BELOW 12000 FEET WITH NO
SIGNIFICANT WEATHER AND/OR OBSTRUCTIONS TO VISIBILITY.

COZ001>005-013-030-031-241700-
...NORTHWEST COLORADO...

CITY           SKY/WX    TMP DP  RH WIND       PRES   REMARKS
CRAIG          FAIR      61  36  39 CALM      29.94F
HAYDEN         FAIR      57  36  44 CALM      29.96F
MEEKER         FAIR      64  36  35 E5        29.97F
RABBIT EARS PA FAIR      41  32  70 W10G20    30.14F
STEAMBOAT SPGS FAIR      53  39  59 CALM      29.98F
WALDEN           N/A     59  32  36 W23       29.98F
$$

COZ006>008-011-241700-
...WEST CENTRAL VALLEYS...

CITY           SKY/WX    TMP DP  RH WIND       PRES   REMARKS
GRAND JUNCTION FAIR      66  32  28 SE8       29.94F
MONTROSE       FAIR      62  38  40 N5        30.01F
EAGLE          NOT AVBL
RIFLE          FAIR      59  31  34 NE3       29.98F
DELTA          FAIR      64  30  27 CALM      29.98F
NUCLA          FAIR      66  32  28 CALM      30.05F
$$

COZ017>023-064>068-241700-
...SOUTHWEST COLORADO...

CITY           SKY/WX    TMP DP  RH WIND       PRES   REMARKS
DURANGO        FAIR      61  30  31 SE3       30.05F
CORTEZ         FAIR      68  35  29 VRB3      30.03F
PAGOSA SPRINGS FAIR      58  17  20 SW6       30.11F
TELLURIDE      FAIR      58  30  34 W10       30.20S
WOLF CREEK PAS FAIR      41  21  45 NW6       30.35S
$$

COZ009-010-012-014-032>034-037-058>063-241700-
...CENTRAL COLORADO...

CITY           SKY/WX    TMP DP  RH WIND       PRES   REMARKS
ASPEN          FAIR      58  31  35 N8        30.05F
BUENA VISTA    FAIR      62  27  26 W24       30.03F
COPPER MTN     FAIR      41  27  56 W26       30.22F
BERTHOUD PASS    N/A     32  23  69 NW40G56   30.15R HAZE    WCI  16
COTTONWOOD PAS FAIR      54  27  35 SW12G25   30.13S
GUNNISON       FAIR      52  27  38 S3        30.10F
KREMMLING      FAIR      55  34  44 E3        30.02F
LEADVILLE      FAIR      51  26  37 NW9G23    30.13F
MONARCH PASS   FAIR      37  28  70 SW32G39   30.36F
SALIDA         FAIR      66  28  23 W22G29    30.09S
SUNLIGHT       FAIR      45  27  49 SW8G20    30.24F
WILKERSON PASS FAIR      45  28  53 W12G24    30.17F
$$

COZ069>075-241700-
...SAN LUIS VALLEY/SANGRE DE CRISTO MOUNTAINS...

CITY           SKY/WX    TMP DP  RH WIND       PRES   REMARKS
ALAMOSA        FAIR      58  22  24 VRB3      30.07F
DEL NORTE      FAIR      56  28  32 E10       30.09F
LA VETA PASS   FAIR      45  25  45 MISG      30.23F
SAGUACHE       FAIR      55  28  35 CALM      30.09F
$$

COZ035-036-038>040-241700-
...NORTHERN COLORADO FRONT RANGE...

CITY           SKY/WX    TMP DP  RH WIND       PRES   REMARKS
DENVER INTL AP FAIR      69  37  30 W8        29.79F
DMNS CITY PARK   N/A     70  38  31 SW6       29.78F
AURORA         MOSUNNY   70  35  28 W7        29.80F
FRONT RANGE AP MOSUNNY   72  37  28 W7        29.81F
ERIE MUNI ARPT FAIR      62  41  46 CALM      29.77F
BOULDER MUN AP FAIR      59  39  47 CALM      29.77F
CENTENNIAL     FAIR      68  35  29 SW8       29.82F
BROOMFIELD     MOSUNNY   68  39  34 SW5       29.80F
FORT COLLINS     N/A     59  40  49 SE8       29.78F
LONGMONT       FAIR      62  42  47 CALM      29.79F
$$

COZ041-046-047-076>085-087-088-241700-
...PIKES PEAK/PALMER DIVIDE AND SOUTHERN FOOTHILLS...

CITY           SKY/WX    TMP DP  RH WIND       PRES   REMARKS
COLO. SPRINGS  FAIR      63  35  35 SE6       29.88F
A. F. ACADEMY  FAIR      65  35  33 SE10      29.87F
SCHRIEVER AFB  FAIR      62  35  36 S6        29.88F
CHEYENNE MTN   FAIR      61  37  39 E7        29.86S
ELLICOTT       FAIR     N/A N/A N/A CALM      29.86F
FALCON         FAIR      65  31  28 W6        29.91F
FORT CARSON    FAIR      61  37  41 CALM      29.86F
LIMON          FAIR      66  34  30 VRB5      29.83F
MONUMENT HILL  FAIR      63  34  34 SW5       29.91F
CANON CITY     NOT AVBL
WALSENBURG     FAIR      72  34  25 W20G25    29.88F
TRINIDAD       FAIR      70  27  20 W8G18     29.88F
$$

COZ042>045-048>051-090-091-241700-
...NORTHEAST COLORADO...

CITY           SKY/WX    TMP DP  RH WIND       PRES   REMARKS
GREELEY ARPT   FAIR      61  43  51 S6        29.79F
AKRON          FAIR      62  39  42 S10       29.79F
BURLINGTON     FAIR      60  42  51 S8        29.82F
WRAY           FAIR      59  37  44 S10       29.81F
YUMA           FAIR      57  30  35 S10       29.78F
STERLING       FAIR      59  41  51 SW9       29.76F
HOLYOKE        NOT AVBL
FORT MORGAN    FAIR      58  38  46 SE5       29.79F
$$

COZ086-089-092>099-241700-
...SOUTHEAST COLORADO...

CITY           SKY/WX    TMP DP  RH WIND       PRES   REMARKS
PUEBLO         FAIR      61  37  41 CALM      29.83F
LA JUNTA       FAIR      61  42  49 S6        29.83F
LAMAR          FAIR      63  42  46 CALM      29.81F
SPRINGFIELD      N/A     64  37  36 VRB3      29.84F
$$




USA.gov is the U.S. government's official web portal to all federal, state and local government web resources and services.